VORF Weather Reports


Display with metric or nautical units.
time (UTC)temp
F
wind
direction
speed
MPH
gust
MPH
rain 1hr
in
rain 24hr
in
rain mn
in
humidity
%
barometer
mb
20260509123043 56 247 3.0 12.0 0.00 0.00 0.00 83 1003.2
20260509121545 55 134 3.0 10.0 0.00 0.00 0.00 85 1003.2
20260509114548 53 188 4.0 10.0 0.00 0.00 0.00 88 1003.1
20260509113043 53 219 3.0 6.0 0.00 0.00 0.00 89 1003.0
20260509111542 53 261 2.0 7.0 0.00 0.00 0.00 90 1003.0
20260509110045 53 217 3.0 7.0 0.00 0.00 0.00 90 1002.6
20260509104543 53 223 3.0 9.0 0.00 0.01 0.00 90 1002.8
20260509103042 53 218 3.0 10.0 0.00 0.01 0.00 89 1002.8
20260509101552 53 186 1.0 6.0 0.00 0.01 0.00 88 1002.9
20260509100044 53 229 2.0 5.0 0.00 0.01 0.00 88 1003.0
20260509094548 54 241 1.0 6.0 0.00 0.01 0.00 87 1003.2
20260509093043 54 229 1.0 9.0 0.00 0.01 0.00 87 1003.5
20260509091544 53 222 3.0 9.0 0.00 0.01 0.00 88 1003.4
20260509090044 53 259 4.0 9.0 0.00 0.01 0.00 87 1003.5
20260509084547 54 181 1.0 7.0 0.00 0.01 0.00 87 1003.6
20260509083048 54 238 3.0 9.0 0.00 0.01 0.00 87 1003.6
20260509081543 54 214 3.0 9.0 0.00 0.01 0.00 86 1003.4
20260509080048 54 212 3.0 10.0 0.00 0.01 0.00 85 1003.5
20260509074551 54 207 2.0 10.0 0.00 0.01 0.00 84 1003.6
20260509073114 54 222 2.0 8.0 0.00 0.01 0.00 84 1003.8
20260509071544 54 214 4.0 10.0 0.00 0.01 0.00 83 1003.9
20260509070047 55 275 2.0 8.0 0.00 0.01 0.00 83 1004.2
20260509064543 55 217 3.0 10.0 0.00 0.01 0.00 82 1004.3
20260509063040 55 0 1.0 8.0 0.00 0.01 0.00 82 1004.4
20260509061544 55 165 2.0 8.0 0.00 0.01 0.00 82 1004.5
20260509060058 56 227 3.0 9.0 0.00 0.01 0.00 82 1004.8
20260509054555 56 254 3.0 10.0 0.00 0.01 0.00 82 1004.8
20260509053042 57 206 3.0 12.0 0.00 0.01 0.00 80 1004.8
20260509051545 57 208 2.0 10.0 0.00 0.01 0.00 80 1004.7
20260509050050 57 266 2.0 8.0 0.00 0.01 0.00 78 1004.8
20260509044546 57 239 4.0 8.0 0.00 0.01 0.01 77 1004.8
20260509043050 57 269 3.0 12.0 0.00 0.01 0.01 76 1004.9
20260509041544 58 214 2.0 9.0 0.00 0.01 0.01 73 1004.9
20260509034548 58 211 3.0 8.0 0.00 0.01 0.01 72 1005.0
20260509033047 57 242 2.0 6.0 0.00 0.01 0.01 73 1005.1
20260509031548 56 221 1.0 5.0 0.00 0.01 0.01 72 1005.2
20260509030047 55 162 1.0 5.0 0.00 0.01 0.01 70 1005.1
20260509024544 55 166 1.0 6.0 0.00 0.01 0.01 69 1005.3
20260509023044 55 147 2.0 3.0 0.00 0.01 0.01 68 1005.3
20260509021545 56 150 1.0 3.0 0.00 0.01 0.01 68 1005.3
20260509020044 56 138 2.0 4.0 0.00 0.01 0.01 67 1005.3
20260509014544 56 129 1.0 4.0 0.00 0.01 0.01 66 1005.2
20260509013051 57 152 2.0 6.0 0.00 0.01 0.01 65 1005.2
20260509011556 57 164 2.0 4.0 0.00 0.01 0.01 64 1005.1
20260509010049 58 120 1.0 4.0 0.00 0.01 0.01 63 1005.1
20260509004604 58 109 3.0 8.0 0.00 0.01 0.01 62 1005.2
20260509003044 59 135 4.0 9.0 0.00 0.01 0.01 61 1005.3
20260509001549 60 85 1.0 8.0 0.00 0.01 0.01 61 1005.3
20260509000042 60 84 2.0 8.0 0.00 0.01 0.01 62 1005.4
20260508234548 60 124 2.0 8.0 0.00 0.01 0.01 62 1005.5
20260508233042 60 133 3.0 7.0 0.00 0.01 0.01 63 1005.5
20260508231546 60 117 2.0 8.0 0.00 0.01 0.01 63 1005.5
20260508230044 60 86 2.0 8.0 0.00 0.01 0.01 63 1005.6
20260508224544 60 122 4.0 9.0 0.00 0.02 0.01 65 1005.7
20260508223049 60 105 3.0 10.0 0.00 0.02 0.01 66 1005.7
20260508221549 61 120 4.0 11.0 0.00 0.02 0.01 66 1005.6
20260508220046 61 21 3.0 11.0 0.00 0.02 0.01 65 1005.7
20260508214554 62 103 5.0 15.0 0.00 0.08 0.01 62 1005.8
20260508213044 64 123 4.0 11.0 0.00 0.08 0.01 61 1005.7
20260508211550 64 159 3.0 12.0 0.00 0.08 0.01 59 1005.8
20260508210049 64 136 5.0 12.0 0.00 0.08 0.01 59 1005.8
20260508204547 65 128 5.0 17.0 0.00 0.08 0.01 59 1005.8
20260508203051 66 69 3.0 12.0 0.00 0.08 0.01 54 1006.1
20260508201544 67 124 5.0 13.0 0.00 0.08 0.01 54 1006.5
20260508200045 66 235 5.0 12.0 0.00 0.08 0.01 54 1006.8
20260508194545 66 145 5.0 15.0 0.00 0.08 0.01 55 1006.8
20260508193055 65 188 7.0 16.0 0.00 0.08 0.01 56 1006.9
20260508191547 66 163 4.0 10.0 0.00 0.08 0.01 53 1007.1
20260508190044 65 192 3.0 10.0 0.00 0.08 0.01 52 1007.3
20260508184550 66 98 2.0 7.0 0.00 0.08 0.01 52 1007.4
20260508183047 66 120 2.0 11.0 0.00 0.08 0.01 52 1007.6
20260508181559 67 153 4.0 13.0 0.00 0.08 0.01 52 1007.7
20260508180044 67 171 2.0 9.0 0.00 0.08 0.01 49 1007.8
20260508174547 65 80 1.0 6.0 0.00 0.08 0.01 54 1008.2
20260508173040 66 181 1.0 9.0 0.00 0.08 0.01 51 1008.6
20260508171545 65 201 3.0 9.0 0.00 0.08 0.01 51 1008.9
20260508170045 64 135 2.0 9.0 0.00 0.08 0.01 49 1009.3
20260508164546 63 140 1.0 8.0 0.00 0.08 0.01 43 1009.3
20260508163048 65 147 1.0 8.0 0.00 0.08 0.01 41 1009.6
20260508161545 65 257 3.0 9.0 0.00 0.08 0.01 39 1009.7
20260508160105 64 118 2.0 9.0 0.00 0.08 0.01 41 1009.8
20260508154544 62 127 4.0 7.0 0.00 0.08 0.01 44 1009.8
20260508153047 61 186 3.0 9.0 0.00 0.08 0.01 50 1010.1
20260508151546 60 177 3.0 8.0 0.00 0.08 0.01 53 1010.1
20260508150042 60 110 3.0 5.0 0.00 0.08 0.01 56 1010.3
20260508144543 59 216 3.0 7.0 0.00 0.08 0.01 63 1010.3
20260508143056 57 165 3.0 8.0 0.00 0.08 0.01 67 1010.6
20260508141553 55 236 2.0 6.0 0.00 0.08 0.01 72 1010.6
20260508140048 53 136 3.0 4.0 0.00 0.08 0.01 73 1010.6
20260508134543 52 75 1.0 6.0 0.00 0.08 0.01 77 1010.4
20260508133053 51 58 1.0 3.0 0.00 0.08 0.01 81 1010.3
20260508131545 49 89 0.0 4.0 0.00 0.08 0.01 85 1010.6
20260508130053 48 146 1.0 5.0 0.00 0.08 0.01 89 1010.5
20260508124548 47 235 0.0 0.0 0.00 0.08 0.01 91 1010.9